ヒル彗星

C/2010 G2 ( Hill )

English version
Home page
Updated on February 3, 2013

---------------------------------------------------------------------

・ プロフィール

発見日 2010年4月10日
発見光度 19.2等
発見者 R. E. Hill (Catalina Sky Survey)

・ 写真集

・ 軌道要素

Epoch 2011 Aug. 27.0 TT = JDT 2455800.5
T 2011 Sept. 2.05232 TT                                 MPC
q   1.9807709            (2000.0)            P               Q
z  +0.0103903      Peri.  137.42622     +0.14259699     +0.42752812
 +/-0.0000001      Node   246.78087     +0.41765711     +0.79168221
e   0.9794193      Incl.  103.74538     +0.89734533     -0.43641607
From 3880 observations 2010 Apr. 10-2012 Oct. 28, mean residual 0".5.

・ 星図

・ 光度変化

        m1 =  7.8 + 5 logΔ + 10.0 log r  [    ,-367]  (              〜2010年 8月31日)
        m1 = 19.3 + 5 logΔ - 10   log r  [-367,-286]  (2010年 8月31日〜2010年11月20日)
        m1 =  7.8 + 5 logΔ + 10.0 log r  [-286,-120]  (2010年11月20日〜2011年 5月 5日)
        m1 =  0   + 5 logΔ + 30   log r  [-120,   0]  (2011年 5月 5日〜2011年 9月 2日)
        m1 =  4.5 + 5 logΔ + 15.0 log r  [   0,    ]  (2011年 9月 2日〜              )

---------------------------------------------------------------------

軌道要素はM.P.E.C. 2012-V101に掲載されたものです。
星図はステラナビゲータ Ver.8 (アストロアーツ) で作成したものです。
光度グラフはComet for Windowsで作成したものです。

---------------------------------------------------------------------

Copyright(C) Seiichi Yoshida (comet@aerith.net). All rights reserved.